{"data":{"norad_id":66926,"epoch":"2026-05-24T23:54:02.111328Z","epoch_age_seconds":75320,"freshness":"FRESH","line1":"1 66926U 25286B   26144.99585777  .00010272  00000+0  32308-3 0  9996","line2":"2 66926  53.1617   3.7279 0000880 106.0198 254.0901 15.33563444 27102","mean_motion":15.33563444,"eccentricity":8.8e-5,"inclination_deg":53.1617,"raan_deg":3.7279,"arg_perigee_deg":106.0198,"mean_anomaly_deg":254.0901,"bstar":0.00032308,"rev_number":2710,"period_min":93.898951858427,"perigee_km":464.58857830273,"apogee_km":465.79300399398,"semimajor_km":6843.3277911484,"source":"CELESTRAK","updated_at":"2026-05-25T13:38:21.384573Z"}}